Location: Nassau
(25.0830°N, 77.3500°W)
Time: 14:48:18
(UTC-04:00)

ISS - All Passes

Search period start: 30 July 2016 00:00
Search period end: 09 August 2016 00:00
Orbit: 401 x 404 km, 51.6° (Epoch: 30 July)

Date Brightness Start Highest point End Pass type
(mag) Time Alt. Az. Time Alt. Az. Time Alt. Az.
30 Jul - 04:34:47 10° NW 04:38:03 85° NE 04:41:16 10° SE night (unlit)
30 Jul - 19:31:36 10° SW 19:34:46 50° NW 19:37:57 10° NNE daylight
31 Jul - 03:42:08 10° NNW 03:45:06 32° NE 03:48:04 10° ESE night (unlit)
31 Jul - 05:20:12 10° WSW 05:21:14 11° SW 05:22:17 10° SW night (unlit)
31 Jul - 18:38:41 10° SSW 18:41:53 57° SE 18:45:04 10° NE daylight
01 Aug - 02:50:02 10° N 02:52:03 15° NE 02:54:04 10° E night (unlit)
01 Aug - 04:25:40 10° WNW 04:28:28 26° SW 04:31:15 10° S night (unlit)
01 Aug - 17:46:27 10° S 17:49:02 22° SE 17:51:37 10° ENE daylight
01 Aug - 19:23:05 10° W 19:25:23 18° NW 19:27:41 10° N daylight
02 Aug - 03:32:22 10° NW 03:35:36 72° SW 03:38:50 10° SE night (unlit)
02 Aug - 18:29:16 10° WSW 18:32:20 39° NW 18:35:24 10° NNE daylight
03 Aug - 02:39:34 10° NNW 02:42:39 41° NE 02:45:45 10° ESE night (unlit)
03 Aug - 17:36:08 10° SW 17:39:22 77° SE 17:42:37 10° NE daylight
04 Aug - 01:47:13 10° N 01:49:35 19° NE 01:51:58 10° E night (unlit)
04 Aug - 03:23:24 10° WNW 03:25:55 21° SW 03:28:26 10° S night (unlit)
04 Aug - 16:43:38 10° S 16:46:28 28° SE 16:49:19 10° ENE daylight
04 Aug - 18:20:58 10° WNW 18:22:54 15° NW 18:24:49 10° N daylight
05 Aug - 02:29:52 10° NW 02:33:03 54° SW 02:36:13 10° SSE night (unlit)
05 Aug - 15:52:22 10° SSE 15:53:38 12° SE 15:54:54 10° E daylight
05 Aug - 17:26:51 10° WSW 17:29:46 31° NW 17:32:43 10° NNE daylight
06 Aug - 01:36:54 10° NNW 01:40:04 53° NE 01:43:15 10° SE night (unlit)
06 Aug - 16:33:30 10° SW 16:36:45 81° NW 16:40:00 10° NE daylight
07 Aug - 00:44:22 10° N 00:47:01 23° NE 00:49:38 10° E night (unlit)
07 Aug - 02:21:06 10° W 02:23:15 17° SW 02:25:24 10° SSW night (unlit)
07 Aug - 15:40:47 10° SSW 15:43:48 36° SE 15:46:49 10° ENE daylight
07 Aug - 17:18:53 10° WNW 17:20:18 12° NW 17:21:43 10° NNW daylight
07 Aug - 23:52:46 10° NNE 23:53:49 11° NE 23:54:52 10° ENE night (unlit)
08 Aug - 01:27:17 10° WNW 01:30:21 41° SW 01:33:25 10° SSE night (unlit)
08 Aug - 14:48:57 10° SSE 14:50:54 15° SE 14:52:50 10° E daylight
08 Aug - 16:24:22 10° WSW 16:27:07 25° NW 16:29:52 10° NNE daylight
